• In Belarus
  • List of Countries
  • For 7 days
  • Water Temperature
  • Satellite Maps
  • Weather Map
  • Weather Widgets
  • user-avatar
    Login

    Hourly Weather Janowek

    Today, 26 March, Tuesday

    Time Temperature Precipitation Wind Pressure Humidity
    00:00 0°C° 0 mm 3 mps 744 mmHg 86%
    01:00 0°C° 0 mm 3 mps 745 mmHg 87%
    02:00 0°C° 0 mm 3 mps 745 mmHg 90%
    03:00 -1°C° 0 mm 3 mps 745 mmHg 92%
    04:00 -1°C° 0 mm 3 mps 745 mmHg 95%
    05:00 -2°C° 0 mm 4 mps 746 mmHg 92%
    06:00 -1°C° 0 mm 4 mps 746 mmHg 89%
    07:00 -1°C° 0 mm 5 mps 746 mmHg 86%
    08:00 0°C° 0 mm 5 mps 746 mmHg 78%
    09:00 +1°C° 0 mm 5 mps 746 mmHg 71%
    10:00 +2°C° 0 mm 6 mps 746 mmHg 63%
    11:00 +3°C° 0.2 mm 7 mps 745 mmHg 62%
    12:00 +2°C° 0.2 mm 8 mps 745 mmHg 62%
    13:00 +3°C° 0.2 mm 9 mps 744 mmHg 61%
    14:00 +2°C° 0.5 mm 10 mps 744 mmHg 63%
    15:00 +2°C° 0.5 mm 10 mps 743 mmHg 64%
    16:00 +2°C° 0.5 mm 10 mps 743 mmHg 66%
    17:00 0°C° 0.3 mm 9 mps 743 mmHg 66%
    18:00 -1°C° 0.3 mm 8 mps 744 mmHg 65%
    19:00 -2°C° 0.3 mm 7 mps 744 mmHg 65%
    20:00 -3°C° 0 mm 7 mps 745 mmHg 68%
    21:00 -3°C° 0 mm 7 mps 746 mmHg 71%
    22:00 -3°C° 0 mm 7 mps 747 mmHg 73%
    23:00 -3°C° 0 mm 7 mps 747 mmHg 77%

    Tomorrow, 27 March, Wednesday

    Time Temperature Precipitation Wind Pressure Humidity
    00:00 -3°C° 0 mm 6 mps 748 mmHg 80%
    01:00 -4°C° 0 mm 6 mps 749 mmHg 83%
    02:00 -4°C° 0 mm 6 mps 749 mmHg 85%
    03:00 -4°C° 0 mm 5 mps 749 mmHg 86%
    04:00 -4°C° 0 mm 5 mps 750 mmHg 88%
    05:00 -4°C° 0 mm 5 mps 750 mmHg 86%
    06:00 -2°C° 0 mm 4 mps 751 mmHg 85%
    07:00 -2°C° 0 mm 4 mps 752 mmHg 83%
    08:00 0°C° 0 mm 4 mps 752 mmHg 74%
    09:00 +1°C° 0 mm 4 mps 752 mmHg 65%
    10:00 +4°C° 0 mm 4 mps 752 mmHg 57%
    11:00 +5°C° 0 mm 4 mps 752 mmHg 52%
    12:00 +5°C° 0 mm 4 mps 752 mmHg 47%
    13:00 +6°C° 0 mm 5 mps 752 mmHg 43%
    14:00 +6°C° 0 mm 4 mps 752 mmHg 47%
    15:00 +6°C° 0 mm 4 mps 752 mmHg 52%
    16:00 +6°C° 0 mm 4 mps 752 mmHg 57%
    17:00 +5°C° 0.1 mm 3 mps 752 mmHg 64%
    18:00 +5°C° 0.1 mm 2 mps 752 mmHg 70%
    19:00 +4°C° 0.1 mm 2 mps 752 mmHg 77%
    20:00 +4°C° 0.1 mm 2 mps 752 mmHg 81%
    21:00 +4°C° 0.1 mm 2 mps 752 mmHg 85%
    22:00 +4°C° 0.1 mm 2 mps 752 mmHg 90%
    23:00 +4°C° 0.2 mm 2 mps 752 mmHg 92%

    Day after tomorrow, 28 March, Thursday

    Time Temperature Precipitation Wind Pressure Humidity
    00:00 +4°C° 0.2 mm 2 mps 752 mmHg 94%
    01:00 +4°C° 0.2 mm 2 mps 752 mmHg 96%
    02:00 +4°C° 0.2 mm 2 mps 752 mmHg 96%
    03:00 +4°C° 0.2 mm 2 mps 752 mmHg 97%
    04:00 +4°C° 0.2 mm 2 mps 752 mmHg 97%
    05:00 +5°C° 0 mm 2 mps 753 mmHg 96%
    06:00 +4°C° 0 mm 3 mps 753 mmHg 94%
    07:00 +4°C° 0 mm 3 mps 753 mmHg 93%
    08:00 +5°C° 0 mm 3 mps 754 mmHg 87%
    09:00 +7°C° 0 mm 3 mps 754 mmHg 82%
    10:00 +8°C° 0 mm 3 mps 754 mmHg 76%
    11:00 +8°C° 0.1 mm 3 mps 755 mmHg 74%
    12:00 +9°C° 0.1 mm 2 mps 755 mmHg 72%
    13:00 +9°C° 0.1 mm 2 mps 755 mmHg 70%
    14:00 +9°C° 0.1 mm 3 mps 755 mmHg 69%
    15:00 +9°C° 0.1 mm 3 mps 755 mmHg 68%
    16:00 +9°C° 0.1 mm 3 mps 755 mmHg 68%
    17:00 +8°C° 0 mm 3 mps 755 mmHg 73%
    18:00 +7°C° 0 mm 2 mps 756 mmHg 79%
    19:00 +5°C° 0 mm 2 mps 756 mmHg 84%
    20:00 +5°C° 0 mm 2 mps 756 mmHg 86%
    21:00 +4°C° 0 mm 2 mps 756 mmHg 88%
    22:00 +4°C° 0 mm 2 mps 757 mmHg 90%
    23:00 +3°C° 0 mm 2 mps 757 mmHg 91%

    29 March, Friday

    Time Temperature Precipitation Wind Pressure Humidity
    00:00 +3°C° 0 mm 2 mps 757 mmHg 92%
    01:00 +3°C° 0 mm 2 mps 757 mmHg 93%
    02:00 +2°C° 0 mm 3 mps 756 mmHg 93%
    03:00 +2°C° 0 mm 3 mps 756 mmHg 93%
    04:00 +2°C° 0 mm 3 mps 756 mmHg 93%
    05:00 +1°C° 0 mm 4 mps 756 mmHg 91%
    06:00 +3°C° 0 mm 4 mps 756 mmHg 89%
    07:00 +4°C° 0 mm 4 mps 756 mmHg 88%
    08:00 +5°C° 0 mm 5 mps 756 mmHg 88%
    09:00 +5°C° 0 mm 5 mps 756 mmHg 88%
    10:00 +6°C° 0 mm 5 mps 756 mmHg 87%
    11:00 +6°C° 0 mm 5 mps 755 mmHg 86%
    12:00 +7°C° 0 mm 5 mps 755 mmHg 84%
    13:00 +7°C° 0 mm 5 mps 755 mmHg 83%
    14:00 +7°C° 0 mm 5 mps 755 mmHg 83%
    15:00 +7°C° 0 mm 4 mps 755 mmHg 83%
    16:00 +7°C° 0 mm 4 mps 755 mmHg 83%
    17:00 +8°C° 0 mm 3 mps 755 mmHg 85%
    18:00 +7°C° 0 mm 3 mps 754 mmHg 87%
    19:00 +7°C° 0 mm 2 mps 754 mmHg 89%
    20:00 +6°C° 0 mm 2 mps 754 mmHg 90%
    21:00 +6°C° 0 mm 2 mps 754 mmHg 92%
    22:00 +6°C° 0 mm 2 mps 754 mmHg 93%
    23:00 +6°C° 0 mm 2 mps 754 mmHg 93%

    30 March, Saturday

    Time Temperature Precipitation Wind Pressure Humidity
    00:00 +4°C° 0 mm 3 mps 754 mmHg 93%
    01:00 +4°C° 0 mm 3 mps 754 mmHg 93%
    02:00 +4°C° 0 mm 3 mps 753 mmHg 93%
    03:00 +4°C° 0 mm 3 mps 753 mmHg 93%
    04:00 +4°C° 0 mm 3 mps 753 mmHg 93%
    05:00 +5°C° 0 mm 3 mps 753 mmHg 91%
    06:00 +6°C° 0 mm 4 mps 753 mmHg 89%
    07:00 +7°C° 0 mm 4 mps 753 mmHg 88%
    08:00 +8°C° 0 mm 5 mps 753 mmHg 81%
    09:00 +10°C° 0 mm 5 mps 752 mmHg 74%
    10:00 +13°C° 0 mm 6 mps 752 mmHg 67%
    11:00 +14°C° 0 mm 6 mps 752 mmHg 64%
    12:00 +15°C° 0 mm 6 mps 751 mmHg 61%
    13:00 +16°C° 0 mm 6 mps 750 mmHg 57%
    14:00 +16°C° 0 mm 6 mps 750 mmHg 58%
    15:00 +16°C° 0 mm 5 mps 749 mmHg 58%
    16:00 +16°C° 0 mm 5 mps 749 mmHg 58%
    17:00 +14°C° 0 mm 4 mps 748 mmHg 65%
    18:00 +12°C° 0 mm 4 mps 748 mmHg 72%
    19:00 +11°C° 0 mm 3 mps 748 mmHg 78%
    20:00 +10°C° 0 mm 3 mps 747 mmHg 81%
    21:00 +10°C° 0 mm 3 mps 747 mmHg 84%
    22:00 +9°C° 0 mm 3 mps 747 mmHg 86%
    23:00 +9°C° 0 mm 3 mps 746 mmHg 87%

    31 March, Sunday

    Time Temperature Precipitation Wind Pressure Humidity
    00:00 +8°C° 0 mm 3 mps 746 mmHg 88%
    01:00 +8°C° 0 mm 3 mps 746 mmHg 89%
    02:00 +8°C° 0 mm 3 mps 746 mmHg 88%
    03:00 +8°C° 0 mm 3 mps 745 mmHg 88%
    04:00 +8°C° 0 mm 3 mps 745 mmHg 87%
    05:00 +8°C° 0.5 mm 3 mps 745 mmHg 87%
    06:00 +6°C° 0.5 mm 4 mps 745 mmHg 87%
    07:00 +6°C° 0.5 mm 5 mps 746 mmHg 86%
    08:00 +6°C° 0.4 mm 5 mps 746 mmHg 79%
    09:00 +4°C° 0.4 mm 6 mps 747 mmHg 71%
    10:00 +4°C° 0.4 mm 6 mps 747 mmHg 63%
    11:00 +5°C° 0 mm 6 mps 748 mmHg 58%
    12:00 +5°C° 0 mm 7 mps 748 mmHg 53%
    13:00 +6°C° 0 mm 7 mps 749 mmHg 47%
    14:00 +5°C° 0 mm 7 mps 749 mmHg 45%
    15:00 +5°C° 0 mm 7 mps 749 mmHg 42%
    16:00 +5°C° 0 mm 7 mps 750 mmHg 39%
    17:00 +3°C° 0 mm 6 mps 750 mmHg 42%
    18:00 +2°C° 0 mm 6 mps 751 mmHg 46%
    19:00 +1°C° 0 mm 5 mps 752 mmHg 49%
    20:00 0°C° 0 mm 5 mps 752 mmHg 50%
    21:00 0°C° 0 mm 4 mps 753 mmHg 51%
    22:00 -1°C° 0 mm 4 mps 753 mmHg 53%
    23:00 -2°C° 0 mm 4 mps 754 mmHg 55%
    Show more